#timestamp,LO_Frequency,Hit 
1497826815.8,286047004.4,N
1497826835.7,286046999.8,N
1497826855.5,286047002.8,N
1497826875.3,286047004.3,N
1497826895.2,286047004.1,N
1497826915.9,286047004.3,N
1497826935.7,286047004.1,N
1497826955.6,286047002.0,N
1497826975.4,286047003.7,N
1497826995.2,286047005.4,N
1497827015.0,286047004.6,N
1497827016.0,286047004.6,N
1497827035.8,286047004.8,N
1497827055.6,286047007.5,Y
1497827075.5,286047005.7,N
1497827095.3,286047006.0,N
1497827115.1,286047005.9,N
1497827135.9,286047007.4,Y
1497827155.7,286047003.8,N
1497827175.5,286047003.3,N
1497827195.3,286047005.4,N
1497827215.2,286047002.9,N
1497827235.9,286047002.6,N
1497827255.7,286047000.2,N
1497827275.6,286046999.8,N
1497827295.4,286047003.9,N
1497827315.2,286047005.9,N
1497827335.1,286047005.7,N
1497827336.0,286047005.7,N
1497827355.8,286047007.5,Y
1497827375.6,286047002.6,N
1497827395.5,286046998.3,N
1497827415.3,286046999.2,N
1497827435.1,286046997.7,N
1497827455.9,286046999.1,N
1497827475.7,286046998.3,N
1497827495.5,286047000.1,N
1497827515.3,286047000.4,N
1497827535.2,286047002.7,N
1497827555.0,286046998.2,N
1497827555.9,286046998.2,N
1497827575.7,286046999.9,N
1497827595.6,286046999.8,N
1497827615.4,286047001.4,N
1497827635.2,286047001.3,N
1497827655.1,286047003.9,N
1497827656.0,286047003.9,N
1497827675.8,286047005.4,N
1497827695.6,286047007.5,Y
1497827715.5,286047004.3,N
1497827735.3,286047004.4,N
1497827755.1,286047001.7,N
1497827775.9,286047001.8,N
1497827795.7,286047003.6,N
1497827815.5,286047001.6,N
1497827835.4,286047003.1,N
1497827855.2,286047005.6,N
1497827875.0,286047004.9,N
1497827875.9,286047004.9,N
1497827895.8,286047004.9,N
1497827915.6,286047004.5,N
1497827935.4,286047005.4,N
1497827955.2,286047005.4,N
1497827975.1,286047004.9,N
1497827976.0,286047004.9,N
1497827995.8,286047003.0,N
1497828015.6,286047005.5,N
1497828035.5,286047005.0,N
1497828055.3,286047004.6,N
1497828075.1,286047005.6,N
1497828095.9,286047005.8,N
1497828115.7,286047005.4,N
1497828135.5,286047007.6,Y
1497828155.4,286047003.2,N
1497828175.2,286047002.5,N
1497828195.0,286047001.8,N
1497828195.9,286047001.8,N
1497828215.8,286047003.2,N
1497828235.6,286047005.9,N
1497828255.4,286047005.5,N
1497828275.2,286047003.0,N
1497828295.1,286047003.1,N
1497828296.0,286047003.1,N
1497828315.8,286047004.2,N
1497828335.6,286047005.5,N
1497828355.5,286047005.2,N
1497828375.3,286047005.7,N
1497828395.1,286047004.6,N
1497828415.9,286047004.8,N
1497828435.7,286047003.0,N
1497828455.5,286047004.7,N
1497828475.4,286047005.3,N
1497828495.2,286047007.0,Y
1497828515.0,286047003.3,N
1497828515.9,286047003.3,N
1497828535.8,286047003.3,N
1497828555.6,286047004.2,N
1497828575.4,286047003.2,N
1497828595.3,286047003.4,N
1497828615.1,286047002.9,N
1497828616.0,286047002.9,N
1497828635.8,286047003.6,N
1497828655.7,286047007.3,Y
1497828675.5,286047004.1,N
1497828695.3,286047002.9,N
1497828715.1,286047005.9,N
1497828735.9,286047003.5,N
1497828755.7,286047003.3,N
1497828775.5,286047003.9,N
1497828795.4,286047005.8,N
1497828815.2,286047003.3,N
1497828835.0,286047003.7,N
1497828835.9,286047003.7,N
1497828855.8,286047005.1,N
1497828875.6,286047005.0,N
1497828895.4,286047005.1,N
1497828915.3,286047005.7,N
1497828935.1,286047003.7,N
1497828936.0,286047003.7,N
1497828955.8,286047002.5,N
1497828975.7,286046999.9,N
1497828995.5,286047002.3,N
1497829015.3,286047000.8,N
1497829035.1,286047000.4,N
1497829055.9,286047001.6,N
1497829075.7,286047001.9,N
1497829095.5,286047004.2,N
1497829115.4,286047006.8,Y
1497829135.2,286047003.8,N
1497829155.0,286047001.5,N
1497829155.9,286047001.5,N
1497829175.8,286047001.5,N
1497829195.6,286047004.0,N
1497829215.4,286047001.4,N
1497829235.3,286047003.2,N
1497829255.1,286047003.5,N
1497829256.0,286047003.5,N
1497829275.8,286047003.2,N
1497829295.7,286047003.3,N
1497829315.5,286047003.6,N
1497829335.3,286047003.2,N
1497829355.2,286047005.5,N
1497829375.9,286047003.5,N
1497829395.7,286047003.6,N
1497829415.5,286047006.0,N
1497829435.4,286047005.7,N
1497829455.2,286047004.8,N
1497829475.0,286047007.0,Y
1497829476.0,286047007.0,Y
1497829495.8,286047001.5,N
1497829515.6,286047000.0,N
1497829535.5,286046998.6,N
1497829555.3,286046999.5,N
1497829575.1,286046998.3,N
1497829595.8,286046998.1,N
1497829615.7,286047000.8,N
1497829635.5,286047002.3,N
1497829655.3,286047000.8,N
1497829675.2,286047002.5,N
1497829695.9,286047002.4,N
1497829715.7,286047001.9,N
1497829735.6,286047002.1,N
1497829755.4,286047004.2,N
1497829775.2,286047003.1,N
1497829795.0,286047003.9,N
1497829796.0,286047003.9,N
1497829815.8,286047003.3,N
1497829835.6,286047003.1,N
1497829855.4,286047004.1,N
1497829875.3,286047001.8,N
1497829895.1,286047000.9,N
1497829915.8,286047002.6,N
1497829935.7,286047000.1,N
1497829955.5,286047003.6,N
1497829975.3,286047003.2,N
1497829995.2,286047003.2,N
1497830015.9,286047002.9,N
1497830035.7,286047003.0,N
1497830055.6,286047001.3,N
1497830075.4,286047004.1,N
1497830095.2,286047003.8,N
1497830115.0,286047001.7,N
1497830115.9,286047001.7,N
1497830135.8,286047001.4,N
1497830155.6,286047003.8,N
1497830175.4,286047002.5,N
1497830195.3,286047001.3,N
1497830215.1,286047003.0,N
1497830216.0,286047003.0,N
1497830235.8,286047005.6,N
1497830255.7,286047005.4,N
1497830275.5,286047004.7,N
1497830295.3,286047006.9,Y
1497830315.2,286047004.3,N
1497830335.9,286047004.1,N
1497830355.7,286047002.1,N
1497830375.6,286047003.7,N
1497830395.4,286047001.7,N
